Miscellaneous Local Product
Issued by NWS North Platte, NE

Home | Current Version | Previous Version | Graphics & Text | Print | Product List | Glossary On
Versions: 1 2 3 4 5 6 7 8 9 10 11 12 13 14 15 16 17 18 19 20 21 22 23 24 25 26 27 28 29 30 31 32 33 34 35 36 37 38 39 40 41 42 43 44 45 46 47 48 49 50
258
AXUS43 KLBF 160010
MISLBF


WESTERN AND NORTH CENTRAL NEBRASKA HOURLY WEATHER ROUNDUP
NATIONAL WEATHER SERVICE NORTH PLATTE NE
600 PM CST SUN JAN 15 2017

NOTE: "FAIR" INDICATES FEW OR NO CLOUDS BELOW 12,000 FEET WITH NO
SIGNIFICANT WEATHER AND/OR OBSTRUCTIONS TO VISIBILITY.

NOTE: STATIONS NOT REPORTING VARIABLES SUCH AS SKY/WEATHER OR
PRESSURE ARE PROVIDED BY RAWS AND APRS NETWORKS AND ARE NOT UNDER
NATIONAL WEATHER SERVICE QUALITY CONTROL.

...OBSERVATIONS IN AND NEAR THE EASTERN PANHANDLE OF NEBRASKA...

CITY           SKY/WX    TMP DP  RH WIND       PRES   REMARKS
PINE RIDGE     CLOUDY    24  20  84 E3        30.01F
CHADRON        CLOUDY    26  22  84 CALM      30.01F
ALLIANCE       CLOUDY    33  23  66 NE3       29.99S
SIDNEY         MIX PCPN  30  25  81 S8        29.99S WCI  22
$$

...OBSERVATIONS IN NORTHERN NEBRASKA AND FAR SOUTHERN SOUTH DAKOTA...

CITY           SKY/WX    TMP DP  RH WIND       PRES   REMARKS
WINNER         FAIR      31  23  72 NE6       30.07S WCI  25
VALENTINE      CLOUDY    35  22  58 S7        30.04R WCI  29
THEDFORD       CLOUDY    36  26  67 S3        30.05S
AINSWORTH      CLOUDY    33  26  75 S5        30.05S WCI  28
O`NEILL        CLOUDY    32  23  69 S5        30.10R WCI  27
ORD            CLOUDY    31  28  89 SE3       30.10S FOG
BROKEN BOW     FRZ RAIN  31  29  92 S5        30.07F FOG     WCI  26
VALENTINE NWR    N/A     36  25  64 CALM        N/A
BUTTE            N/A     35  24  64 SE3         N/A
HALSEY           N/A     35  23  61 CALM        N/A
SARGENT          N/A     32  27  80 CALM        N/A
CHAMBERS         N/A     33  20  59 CALM        N/A
EWING            N/A     32  25  76 S3          N/A
$$

...OBSERVATIONS IN SOUTHWEST NEBRASKA AND FAR NORTHEAST COLORADO...

CITY           SKY/WX    TMP DP  RH WIND       PRES   REMARKS
WRAY           LGT SNOW N/A N/A N/A E3        30.01
HOLYOKE        LGT SNOW  34  32  93 CALM      30.01F VSB 1
IMPERIAL       FRZ RAIN  31  29  92 CALM      30.03S FOG
OGALLALA       MIX PCPN  32  30  93 CALM      30.04S
NORTH PLATTE   FRZ RAIN  31  28  89 CALM      30.06F FOG
MCCOOK         CLOUDY    30  30 100 E7        30.05F FOG     WCI  23
LEXINGTON      MIX PCPN  31  28  91 E3        30.08F
STAPLETON        N/A     31  25  78 CALM        N/A
GOTHENBURG       N/A     32  29  88 CALM        N/A
CALLAWAY         N/A     29  27  91 S3          N/A
$$

...OBSERVATIONS IN CENTRAL LINCOLN COUNTY AREA...

CITY           SKY/WX    TMP DP  RH WIND       PRES   REMARKS
N.P. AIRPORT   FRZ RAIN  31  28  89 CALM      30.06F FOG
N.P. DOWNTOWN    N/A     31  29  92 CALM        N/A
N.P. SOUTHEAST   N/A     30  27  88 CALM        N/A
N.P. HILLCREST   N/A     30  28  92 CALM        N/A
$$

...SOME OBSERVATIONS FROM AROUND THE REGION...

CITY           SKY/WX    TMP DP  RH WIND       PRES   REMARKS
LARAMIE        CLOUDY    21  18  88 CALM      29.94S
CHEYENNE       CLOUDY    35  19  52 NE7       29.95S WCI  29
DENVER         FLURRIES  33  25  72 NW6       29.95F WCI  28
AKRON          CLOUDY    29  25  85 N5        29.96F WCI  24
SCOTTSBLUFF    CLOUDY    35  25  66 CALM      29.99S
RAPID CITY     CLOUDY    25  14  63 CALM      29.99S
BISMARCK       CLOUDY     6  -1  73 SE5       30.06R WCI  -3
PIERRE         CLOUDY    11   5  77 CALM      30.08F
SIOUX FALLS    CLOUDY    32  20  61 S8        30.16R WCI  25
OMAHA          FRZ RAIN  32  27  81 SE3       30.20F FOG
GRAND ISLAND   CLOUDY    30  30 100 SE6       30.12F WCI  24
KANSAS CITY    FRZ DRZL  32  29  88 E10       30.17S WCI  24
WICHITA        CLOUDY    34  34 100 NE6       30.06S WCI  29
OKLAHOMA CITY  LGT RAIN  37  36  96 NE10      29.94F WCI  30
DALLAS         CLOUDY    63  63 100 E10       29.86F THUNDER
AMARILLO       CLOUDY    32  32 100 N12       29.90F WCI  23
DODGE CITY     CLOUDY    31  30  96 NE8       30.01S FOG     WCI  23
HAYS           LGT SNOW  30  30 100 E10       30.07S FOG     WCI  21
GOODLAND       CLOUDY    31  30  96 NE7       29.98F WCI  24
$$




USA.gov is the U.S. government's official web portal to all federal, state and local government web resources and services.